This demonstration page uses our WeatherBlox Daily Observations layout. Learn more.

Left ArrowRight Arrow

Hourly Observations for April 30, 2016

Temp ( °F °C ) Dew Point ( °F °C ) Humidity (%) Winds ( mph kmh ) Pressure ( in mb ) Visibility ( mi km ) Precip ( " mm )
12:53 am 00:53 Clear 61 16.1 33 0.6 35 35 N 13 20 30.04 1017 10 16 0.00 0.00
1:53 am 01:53 Clear 59 15 34 1.1 39 39 NNW 6 9 30.05 1018 10 16 0.00 0.00
2:53 am 02:53 Clear 60 15.6 34 1.1 38 38 NNW 9 15 30.05 1018 10 16 0.00 0.00
3:53 am 03:53 Clear 59 15 34 1.1 39 39 NNW 9 15 30.06 1018 10 16 0.00 0.00
4:53 am 04:53 Clear 58 14.4 35 1.7 42 42 N 9 15 30.06 1018 10 16 0.00 0.00
5:53 am 05:53 Clear 58 14.4 35 1.7 42 42 N 12 19 30.07 1018 10 16 0.00 0.00
6:53 am 06:53 Sunny 58 14.4 35 1.7 42 42 NNW 10 17 30.06 1018 10 16 0.00 0.00
7:53 am 07:53 Sunny 61 16.1 35 1.7 38 38 N 16 26 30.07 1018 10 16 0.00 0.00
8:53 am 08:53 Sunny 63 17.2 35 1.7 35 35 N 18 30 30.06 1018 10 16 0.00 0.00
9:53 am 09:53 Sunny 67 19.4 35 1.7 31 31 N 22 35 30.04 1017 10 16 0.00 0.00
10:53 am 10:53 Sunny 70 21.1 36 2.2 29 29 NNE 20 31 30.03 1017 10 16 0.00 0.00
11:53 am 11:53 Sunny 73 22.8 37 2.8 27 27 NE 21 33 30.01 1016 10 16 0.00 0.00
12:53 pm 12:53 Sunny 75 23.9 38 3.3 26 26 NNE 14 22 29.98 1015 10 16 0.00 0.00
1:53 pm 13:53 Sunny 78 25.6 38 3.3 24 24 NNE 26 43 29.95 1014 10 16 0.00 0.00
2:53 pm 14:53 Sunny 80 26.7 38 3.3 22 22 NNE 21 33 29.93 1014 10 16 0.00 0.00
3:53 pm 15:53 Sunny 81 27.2 37 2.8 21 21 NE 17 28 29.91 1013 10 16 0.00 0.00
4:53 pm 16:53 Sunny 81 27.2 36 2.2 20 20 NNE 23 37 29.90 1012 10 16 0.00 0.00
5:53 pm 17:53 Sunny 81 27.2 37 2.8 21 21 NNE 15 24 29.90 1013 10 16 0.00 0.00
6:53 pm 18:53 Sunny 79 26.1 37 2.8 22 22 NNE 14 22 29.90 1013 10 16 0.00 0.00
7:53 pm 19:53 Sunny 74 23.3 38 3.3 27 27 N 9 15 29.91 1013 10 16 0.00 0.00
8:53 pm 20:53 Clear 74 23.3 37 2.8 26 26 N 9 15 29.92 1013 10 16 0.00 0.00
9:53 pm 21:53 Clear 70 21.1 38 3.3 31 31 VRB 3 6 29.94 1014 10 16 0.00 0.00
10:53 pm 22:53 Clear 64 17.8 40 4.4 41 41 W 3 6 29.94 1014 10 16 0.00 0.00
11:53 pm 23:53 Clear 63 17.2 40 4.4 43 43 N 6 9 29.93 1014 10 16 0.00 0.00

Powered by AerisWeather